Temp
22 23 23 23 23 23 23 24 23 23 22 22 22 23 23 23 23 22 22 22 22 22 22 21 21 21 21 21 21 21 22 22 22 22 22 22 22 22 22 22 23 23
22 23 23 23 23 23 23 24 24 23 23 23 23 23 23 23 23 23 23 22 22 22 22 22 22 21 21 21 21 21 22 22 22 22 22 22 22 22 23 23 23 23
22 23 23 23 23 23 23 23 23 23 23 23 23 23 23 23 23 23 23 23 23 22 22 22 22 21 21 21 21 21 21 22 22 22 22 22 22 22 22 23 23 23
23 23 23 23 23 23 23 23 23 24 23 23 23 23 23 23 23 23 23 23 23 23 22 22 22 22 21 21 21 21 21 22 22 22 22 22 22 22 22 22 23 23
24 24 24 24 23 23 23 23 23 24 24 23 23 23 23 23 23 23 23 23 23 23 23 23 22 22 22 22 22 21 21 22 21 21 22 22 22 22 22 22 22 23
24 24 24 24 23 23 23 23 23 23 24 24 23 23 23 23 23 23 22 22 23 23 23 23 23 23 22 22 22 22 22 22 22 22 22 22 22 22 22 22 22 22
23 24 23 23 23 23 23 23 23 23 23 24 23 23 23 23 23 23 22 22 22 22 22 22 23 23 23 23 22 22 22 22 22 22 22 22 22 22 22 22 22 22
24 24 23 23 23 24 24 24 23 23 23 23 23 24 23 23 23 23 23 22 22 22 22 22 23 23 23 23 23 22 22 22 22 22 22 22 22 22 22 22 22 22
24 24 24 23 24 24 24 24 24 24 23 23 24 24 24 23 23 23 23 23 22 22 22 22 22 23 23 23 23 23 22 22 22 22 22 22 22 22 22 22 22 22
22 23 23 23 24 24 24 24 24 24 24 24 24 24 24 24 23 23 22 22 22 22 22 22 22 22 23 23 23 23 23 23 23 22 22 22 22 22 22 22 22 22
21 22 22 22 23 24 24 24 24 24 24 24 24 23 23 24 23 23 23 22 22 22 22 22 22 22 23 23 23 23 23 23 23 23 22 22 22 22 22 22 22 22
22 22 22 22 23 23 24 24 24 24 24 24 24 23 23 23 23 23 23 23 23 23 23 23 23 23 23 23 23 23 23 23 23 23 23 23 23 23 23 22 22 22
22 23 23 23 23 23 23 23 24 24 24 24 24 24 23 23 23 23 23 24 23 23 23 23 23 23 23 23 23 23 23 23 23 23 23 23 23 23 23 23 22 22
23 24 24 23 23 23 23 23 24 24 24 24 24 24 24 23 23 24 24 24 24 24 23 23 23 23 23 23 23 22 22 23 23 23 23 23 23 23 23 23 23 22
23 23 24 24 23 23 23 24 24 24 24 24 24 24 24 24 24 24 24 24 23 23 23 23 23 23 23 23 23 23 23 23 23 23 23 23 23 23 23 23 23 23
23 23 23 23 23 23 24 24 24 24 23 23 24 24 24 24 24 23 23 23 23 23 23 23 23 23 24 24 24 24 23 23 23 23 23 23 23 23 23 23 23 23
23 23 23 23 23 24 24 24 24 24 24 23 23 24 24 24 24 23 23 23 23 23 23 23 23 23 24 24 24 24 24 23 23 23 23 23 23 23 23 23 23 23
23 23 23 23 23 24 24 25 25 24 24 24 23 24 24 24 24 24 23 23 23 23 23 23 24 24 24 24 24 24 24 24 23 23 23 23 23 23 23 23 23 23
24 24 24 24 24 24 25 25 25 24 24 24 24 24 24 24 24 24 23 23 23 23 23 24 24 24 24 24 24 24 24 24 24 23 23 23 23 24 23 23 23 23
24 24 24 24 25 25 25 25 25 25 25 25 25 24 24 24 24 24 24 23 23 23 23 23 24 24 24 24 24 24 24 24 24 24 23 23 23 23 23 23 23 23
25 25 24 25 25 25 24 25 25 26 25 25 25 24 24 24 24 24 24 24 23 23 23 23 24 24 25 25 25 24 24 24 23 23 23 23 23 23 23 23 23 23
25 25 25 25 25 25 24 25 25 25 26 26 25 25 25 24 24 24 24 24 24 24 23 23 23 24 24 24 24 24 24 23 23 23 23 23 23 22 22 23 23 23
26 26 26 26 25 25 25 25 25 26 26 26 25 25 25 25 25 25 24 24 24 24 24 24 24 24 24 24 24 23 23 23 23 23 23 23 23 23 22 22 22 22
26 26 26 26 26 26 26 26 26 26 26 26 25 25 25 25 25 25 25 25 25 25 25 25 25 24 24 23 23 23 23 23 22 23 23 23 23 23 22 23 23 22
26 26 26 26 26 26 26 26 26 25 25 25 25 25 25 25 25 24 24 25 25 25 25 24 24 24 23 23 23 23 22 22 22 22 22 22 22 22 22 22 22 22
26 26 26 26 26 26 26 26 25 25 25 25 25 25 24 24 24 24 24 24 24 24 24 24 24 23 23 23 23 22 22 22 22 22 22 22 22 22 22 22 22 22
Height
1526 1529 1531 1533 1536 1538 1541 1543 1545 1547 1549 1551 1552 1553 1555 1557 1559 1561 1562 1564 1565 1567 1568 1570 1571 1573 1574 1574 1575 1576 1577 1578 1579 1580 1581 1582 1583 1583 1584 1584 1585 1585
1524 1526 1529 1531 1533 1536 1538 1540 1543 1545 1547 1548 1550 1552 1553 1555 1557 1559 1561 1562 1564 1565 1566 1568 1569 1571 1572 1573 1574 1574 1575 1577 1578 1578 1580 1580 1582 1582 1583 1583 1584 1584
1521 1523 1526 1528 1530 1533 1536 1538 1541 1543 1545 1547 1548 1550 1551 1553 1555 1557 1559 1560 1562 1563 1565 1566 1567 1569 1570 1571 1572 1572 1573 1575 1576 1577 1578 1579 1580 1581 1582 1582 1583 1583
1517 1520 1523 1525 1528 1531 1533 1535 1537 1540 1542 1544 1546 1548 1549 1551 1553 1555 1557 1558 1560 1561 1563 1564 1566 1567 1568 1570 1571 1571 1572 1573 1574 1575 1576 1577 1578 1579 1580 1581 1581 1582
1514 1517 1520 1523 1525 1528 1531 1532 1534 1536 1539 1541 1543 1545 1547 1549 1551 1553 1554 1556 1557 1559 1560 1562 1563 1565 1566 1567 1568 1569 1570 1571 1572 1573 1573 1574 1576 1577 1578 1578 1579 1580
1512 1514 1517 1520 1523 1525 1528 1529 1531 1534 1536 1538 1541 1543 1545 1547 1549 1550 1552 1553 1555 1556 1558 1559 1561 1562 1564 1565 1566 1567 1568 1569 1570 1571 1571 1572 1573 1574 1575 1576 1577 1578
1509 1511 1514 1517 1520 1523 1525 1527 1529 1531 1533 1536 1538 1540 1542 1544 1546 1548 1549 1551 1552 1554 1555 1556 1558 1559 1561 1562 1563 1565 1566 1567 1568 1569 1569 1570 1570 1571 1572 1573 1574 1575
1505 1508 1511 1514 1517 1519 1522 1524 1526 1528 1531 1533 1535 1537 1539 1541 1543 1545 1547 1548 1550 1551 1552 1554 1555 1556 1558 1559 1560 1562 1563 1564 1565 1566 1567 1567 1568 1568 1569 1571 1572 1573
1502 1505 1508 1511 1513 1516 1518 1520 1523 1526 1528 1530 1532 1534 1536 1538 1540 1542 1544 1545 1547 1548 1549 1551 1552 1553 1555 1556 1557 1559 1560 1561 1563 1563 1564 1565 1565 1566 1567 1568 1569 1570
1500 1502 1505 1507 1509 1512 1514 1517 1520 1522 1525 1527 1529 1531 1533 1535 1537 1539 1541 1542 1544 1545 1546 1548 1549 1550 1552 1553 1554 1556 1557 1558 1560 1561 1561 1562 1563 1564 1565 1566 1566 1567
1497 1500 1502 1504 1506 1509 1511 1514 1517 1519 1521 1523 1526 1528 1530 1532 1534 1536 1537 1539 1540 1542 1543 1544 1545 1547 1548 1549 1551 1552 1554 1555 1557 1558 1559 1560 1561 1562 1562 1563 1564 1564
1493 1496 1498 1501 1503 1506 1508 1511 1514 1516 1518 1520 1522 1524 1526 1528 1530 1532 1534 1535 1537 1538 1539 1541 1542 1543 1545 1546 1548 1549 1551 1552 1553 1555 1556 1557 1558 1558 1559 1560 1561 1561
1488 1491 1494 1497 1500 1503 1506 1508 1510 1512 1514 1516 1519 1521 1523 1525 1526 1528 1530 1531 1533 1534 1536 1537 1539 1540 1541 1543 1545 1546 1547 1549 1550 1551 1552 1553 1554 1555 1556 1556 1557 1558
1484 1487 1490 1493 1497 1500 1503 1505 1507 1509 1511 1513 1515 1517 1519 1521 1523 1524 1526 1528 1529 1531 1533 1534 1536 1537 1538 1540 1541 1542 1543 1544 1546 1547 1548 1549 1550 1551 1552 1552 1553 1553
1482 1485 1487 1490 1493 1496 1499 1501 1504 1506 1508 1510 1512 1514 1516 1518 1519 1521 1523 1524 1526 1528 1529 1531 1532 1533 1534 1536 1537 1538 1539 1540 1541 1543 1543 1544 1545 1546 1547 1548 1549 1549
1479 1482 1484 1487 1489 1492 1495 1497 1500 1503 1505 1507 1509 1510 1512 1514 1516 1518 1519 1521 1522 1524 1525 1527 1527 1528 1530 1531 1533 1534 1535 1536 1537 1538 1539 1540 1541 1542 1543 1543 1544 1544
1475 1478 1481 1483 1486 1488 1491 1493 1496 1499 1501 1503 1505 1507 1509 1510 1512 1514 1515 1517 1519 1520 1521 1522 1523 1524 1525 1527 1528 1530 1531 1532 1533 1534 1535 1536 1536 1537 1538 1539 1540 1540
1471 1474 1476 1479 1482 1484 1486 1489 1492 1495 1497 1499 1501 1503 1505 1507 1508 1510 1511 1513 1515 1516 1517 1518 1518 1520 1521 1523 1524 1526 1528 1529 1529 1530 1531 1532 1533 1533 1534 1535 1536 1537
1468 1470 1473 1475 1477 1480 1483 1485 1488 1490 1492 1494 1496 1499 1501 1503 1504 1506 1508 1510 1511 1512 1513 1514 1514 1516 1517 1519 1521 1522 1524 1526 1526 1527 1527 1528 1529 1530 1530 1531 1532 1533
1465 1467 1469 1472 1474 1477 1480 1482 1484 1485 1487 1490 1493 1495 1498 1499 1501 1503 1504 1506 1507 1508 1509 1509 1510 1512 1513 1515 1517 1518 1521 1522 1523 1524 1524 1525 1526 1526 1527 1528 1529 1529
1461 1463 1466 1469 1471 1474 1476 1478 1480 1482 1484 1487 1489 1491 1493 1495 1497 1499 1500 1502 1503 1504 1505 1505 1506 1508 1510 1511 1513 1515 1517 1519 1520 1522 1522 1522 1523 1523 1524 1525 1525 1526
1457 1460 1463 1465 1468 1471 1473 1475 1476 1478 1481 1483 1485 1488 1490 1492 1494 1495 1497 1498 1500 1501 1502 1501 1502 1504 1505 1507 1509 1512 1514 1516 1518 1519 1519 1519 1519 1520 1521 1521 1521 1521
1454 1457 1459 1462 1465 1466 1468 1470 1472 1474 1477 1480 1482 1485 1487 1488 1490 1491 1493 1495 1496 1497 1498 1498 1499 1500 1501 1503 1506 1509 1512 1514 1515 1516 1516 1515 1515 1516 1517 1517 1517 1516
1451 1454 1456 1459 1461 1462 1464 1466 1469 1471 1474 1476 1479 1481 1482 1484 1486 1488 1490 1491 1492 1493 1494 1494 1496 1497 1499 1501 1503 1506 1509 1511 1512 1513 1512 1511 1511 1513 1513 1513 1512 1511
1448 1451 1453 1455 1457 1459 1461 1463 1466 1468 1471 1473 1475 1477 1479 1481 1483 1485 1486 1487 1488 1490 1491 1492 1494 1496 1498 1499 1502 1505 1507 1508 1509 1509 1507 1507 1508 1509 1509 1508 1507 1507
1445 1447 1450 1452 1454 1456 1459 1461 1464 1466 1469 1471 1472 1474 1477 1479 1481 1482 1483 1484 1486 1487 1489 1490 1492 1494 1496 1498 1500 1503 1504 1505 1505 1504 1502 1503 1505 1505 1504 1504 1503 1504
Wind_Speed
38 36 37 37 36 36 35 33 31 31 29 29 28 27 25 23 20 19 18 18 18 19 20 19 19 18 18 17 16 16 15 14 12 11 9 8 8 11 14 14 12 11
39 38 37 36 36 36 35 33 31 30 30 30 28 27 25 24 22 20 19 18 18 19 20 21 20 19 19 18 18 18 17 15 14 13 12 11 10 10 12 15 15 14
41 39 39 38 36 35 35 33 31 30 30 30 30 29 27 26 24 22 21 20 19 19 20 21 21 21 20 19 19 19 19 17 16 15 14 13 12 11 11 14 16 16
42 40 39 38 37 36 35 34 33 32 32 32 31 30 29 28 27 25 23 22 21 20 20 20 21 22 22 21 20 20 20 18 17 16 16 15 14 14 13 13 15 17
41 40 39 38 37 37 36 36 35 34 33 33 32 31 30 29 28 26 25 24 24 23 21 20 21 22 23 23 22 22 21 20 19 19 19 18 17 17 16 15 15 16
42 41 40 39 38 38 37 37 37 35 34 33 31 31 30 29 27 26 26 26 26 25 24 23 22 22 23 24 24 24 23 22 22 21 21 21 20 19 19 19 18 17
44 42 41 40 39 38 38 38 37 37 35 33 31 30 30 29 28 26 25 25 26 26 26 25 24 23 22 23 24 24 24 24 24 24 24 23 23 22 22 22 21 20
45 43 42 41 40 39 38 38 37 37 35 34 33 31 31 30 30 29 27 26 26 26 26 26 26 25 24 24 24 25 25 24 25 26 26 25 25 25 25 24 23 22
46 45 44 43 42 40 39 38 38 37 36 36 34 33 32 31 31 31 30 29 28 28 27 27 27 26 27 26 25 26 26 26 26 26 27 27 27 27 27 27 26 25
49 47 46 45 44 42 41 39 38 38 37 37 36 35 33 33 32 32 32 31 31 31 30 30 29 28 28 28 27 27 27 27 27 27 28 28 28 28 28 28 28 27
50 49 48 48 47 45 43 41 40 39 38 37 37 36 35 34 33 32 33 33 33 33 32 32 32 31 30 29 29 28 27 27 27 28 28 29 28 28 28 28 29 29
52 51 50 49 48 47 44 43 41 40 39 38 38 37 37 36 35 34 34 34 34 34 34 33 34 33 32 31 30 30 29 29 29 29 29 30 30 29 29 29 29 30
53 52 51 50 49 48 46 44 43 42 40 39 38 38 38 37 37 36 35 35 34 34 35 34 34 34 34 33 32 32 32 31 32 31 31 31 31 31 31 31 31 31
54 52 52 51 49 48 47 45 44 43 42 41 39 39 39 39 38 37 37 36 36 35 35 35 35 35 35 35 34 34 34 34 33 34 34 33 33 32 32 32 32 32
53 52 52 51 49 48 48 47 46 44 43 42 41 40 40 40 40 39 38 38 37 37 36 36 37 37 36 36 36 36 36 36 36 35 35 35 35 34 34 34 34 35
52 52 52 51 50 49 48 47 46 45 44 43 42 42 41 40 40 40 40 40 39 39 38 38 39 39 38 37 36 36 37 38 38 38 37 37 37 37 36 36 36 37
50 51 51 51 51 49 48 47 45 45 44 43 43 42 42 41 40 40 41 41 40 40 40 40 40 40 39 38 37 37 38 39 40 40 39 39 40 39 39 38 38 38
48 49 50 51 51 50 49 47 45 45 44 44 44 43 42 41 41 40 40 40 40 40 39 40 40 40 40 39 38 38 38 39 40 41 41 41 41 41 41 40 40 40
47 47 47 49 49 49 49 47 46 46 45 45 44 43 42 42 42 41 39 39 39 39 39 39 38 38 38 38 38 38 38 38 39 40 42 42 42 41 42 42 42 42
46 46 46 46 46 46 48 48 47 46 45 45 44 44 43 43 42 42 41 40 40 40 40 39 38 37 37 37 37 37 37 37 38 38 40 42 42 42 42 42 42 43
46 46 45 44 44 45 46 47 47 46 45 45 44 44 44 44 43 43 42 42 41 41 41 41 40 38 37 37 37 36 36 36 37 38 39 41 42 43 43 43 43 44
47 46 45 44 43 44 45 46 46 46 44 44 44 44 44 44 44 44 44 43 43 42 43 43 43 42 40 39 38 37 36 36 36 37 39 40 41 42 43 44 44 45
47 46 45 44 44 44 44 45 45 45 44 44 44 45 45 45 45 45 44 44 44 44 44 45 44 43 43 42 41 39 37 37 37 38 38 40 41 41 42 43 44 46
48 46 45 44 44 44 44 44 44 44 44 44 44 45 45 45 45 45 45 45 45 45 45 45 45 44 43 43 42 40 37 36 37 38 39 41 41 41 42 43 44 46
45 46 46 45 44 44 43 43 43 43 43 44 44 45 45 45 45 45 45 46 46 46 46 46 45 44 43 43 42 39 37 36 35 37 40 41 41 41 43 44 45 46
42 45 45 45 44 43 42 42 42 41 42 42 43 44 44 44 44 44 44 44 44 45 45 45 45 44 42 41 39 38 37 36 36 37 40 40 39 40 42 43 45 46
Wind_Direction
214 212 214 215 215 215 216 215 211 209 208 208 213 218 221 222 219 215 214 215 215 214 214 214 215 215 214 220 226 227 228 231 234 237 236 233 228 223 222 223 220 209
215 213 213 214 214 213 214 216 214 211 210 212 217 221 223 225 224 221 220 220 218 216 215 216 217 217 216 218 224 230 232 231 233 237 240 242 240 236 232 227 225 223
217 215 215 215 215 213 214 216 216 214 214 214 217 221 224 227 228 227 225 225 224 222 220 219 218 218 218 220 223 230 235 236 236 238 240 244 247 247 243 234 228 225
217 216 217 217 217 215 214 215 217 217 216 216 218 221 224 227 229 229 227 227 228 227 225 223 221 220 220 221 223 228 235 238 239 242 243 244 247 250 249 242 234 230
218 218 218 218 217 216 215 216 218 219 218 219 220 222 224 226 227 228 227 228 230 231 230 228 227 224 222 223 223 226 233 238 238 241 245 246 247 250 252 250 245 239
219 219 219 219 218 217 216 217 218 219 220 220 220 222 224 224 225 226 226 227 229 231 232 232 230 228 227 226 225 226 231 236 238 240 244 249 250 251 252 252 252 249
220 220 220 219 219 218 218 218 218 219 222 222 222 222 223 224 225 226 227 227 227 230 232 232 231 231 232 230 228 228 230 234 238 240 243 248 251 252 252 252 254 254
222 221 220 220 220 220 220 220 219 220 222 223 224 224 224 224 225 227 230 229 228 230 232 233 234 233 234 233 231 230 231 233 236 239 242 245 247 250 253 253 255 256
222 222 221 220 221 221 222 222 222 221 222 223 224 226 226 226 225 226 229 231 231 232 233 234 236 236 236 235 234 233 234 235 236 240 242 243 244 247 251 253 254 256
221 221 221 220 221 222 223 223 223 222 222 223 225 226 227 228 228 226 227 229 232 233 234 235 236 238 238 238 238 238 239 238 238 241 244 245 246 248 250 252 254 256
220 221 221 220 221 222 223 224 223 223 223 224 224 225 227 229 229 228 227 228 230 233 235 236 237 238 239 240 241 242 242 242 241 241 244 247 249 250 251 252 254 256
221 221 221 222 222 222 223 224 223 224 225 224 224 225 227 229 229 230 229 229 231 233 235 237 239 240 240 242 243 243 244 245 244 244 245 247 249 251 252 253 255 257
221 222 223 223 224 223 224 224 224 224 225 226 226 226 227 228 229 230 232 233 233 234 235 237 239 240 241 242 243 244 245 246 247 248 248 247 248 250 251 253 255 257
222 223 224 224 225 224 224 224 224 224 225 227 228 228 227 228 229 231 233 235 235 236 237 238 239 240 241 241 242 243 244 246 249 250 250 250 250 249 250 251 253 256
222 223 224 224 224 224 224 225 225 225 225 227 228 230 231 230 230 232 234 235 236 237 238 238 239 240 241 242 242 243 243 246 248 250 252 252 252 251 250 250 251 254
222 223 223 223 223 224 225 226 226 226 226 226 228 231 233 233 232 231 232 234 236 237 238 239 239 241 243 244 244 244 245 245 246 249 251 252 253 253 252 251 251 252
222 222 222 222 223 224 226 227 227 226 226 226 228 230 233 234 234 232 231 232 235 237 238 239 241 242 244 245 246 246 246 245 246 248 250 251 252 253 253 254 254 254
223 223 223 223 223 223 225 227 227 226 227 227 227 229 231 233 234 235 233 231 233 236 238 241 243 245 245 246 246 247 247 246 247 248 249 251 252 254 255 256 256 256
223 224 223 223 224 224 225 226 226 226 226 227 228 228 229 231 233 235 234 233 232 234 237 242 245 246 246 247 247 248 248 247 248 248 249 251 253 255 256 256 257 257
224 225 225 224 225 224 224 224 226 227 227 227 228 227 227 229 231 233 235 235 234 235 238 242 246 248 249 249 249 249 249 249 249 250 250 251 253 255 257 258 258 259
224 226 227 227 226 224 224 224 226 227 227 227 226 226 227 229 230 232 234 236 237 237 238 241 245 248 250 251 251 252 251 251 251 251 252 253 254 255 256 258 259 260
224 226 227 228 227 225 224 224 225 227 227 227 226 226 228 229 230 231 233 236 238 239 240 242 245 248 249 249 251 252 253 253 253 253 254 255 256 256 257 258 259 259
222 225 227 228 228 227 227 226 226 226 227 227 226 225 226 228 230 232 233 235 238 239 241 243 245 248 248 249 250 250 250 251 253 255 257 258 259 259 258 260 260 260
222 224 226 227 228 229 230 229 228 227 227 227 226 226 227 229 230 232 233 235 237 240 242 244 246 247 248 249 250 249 249 251 252 254 257 260 261 261 261 262 263 262
222 223 225 227 228 230 232 232 231 229 228 228 228 228 228 228 229 231 232 235 237 239 242 243 245 247 247 248 249 250 251 253 254 256 258 259 261 263 263 264 265 265
223 223 224 226 228 230 231 232 232 231 229 229 229 230 230 229 229 231 233 236 238 239 241 242 244 246 248 249 250 250 251 254 255 256 259 259 261 263 264 266 267 267